PREFIRE-2 (59965 NORAD) Tracking and Keplerian Element Data

This shows tracking and keplerian element data for the satellite.

Feedback or suggestion? Click here.




ElementValue
Catalog59965
NamePREFIRE-2
Epoch Orbit46
Epoch Day160.20904107
Epoch Year2024
RAAN311.2364
Inclination97.4517
Eccentricity0.0012507
Argument of Perigee294.6576
Mean Anonmoly65.3352
Mean Motion15.11753561
Decay Rate7.298E-05
L11 59965U 24108A 24160.20904107 .00007298 00000+0 43080-3 0 9998
L22 59965 97.4517 311.2364 0012507 294.6576 65.3352 15.11753561 462



Live tracking and technical data element details for PREFIRE-2 (NORAD 59965). PREFIRE-2 can be tracked NOW for your location showing map with azimuth and elevation plus other details from your city location.







IsCatalogInMostPopularTable: catalog: 59965, numindb: 13
Update: records affected: 1



GetName: 59965 PREFIRE-2

Hit Count: updated at: Thu, 25 Jul 2024 01:28:38 GMT